Regional Weather Roundup
Issued by NWS Lake Charles, LA

Home | Current Version | Previous Version | Text Only | Print | Product List | Glossary On
Versions: 1 2 3 4 5 6 7 8 9 10 11 12 13 14 15 16 17 18 19 20 21 22 23 24 25 26 27 28 29 30 31 32 33 34 35 36 37 38 39 40 41 42 43 44 45 46 47 48 49 50
000
ASUS44 KLCH 240910
RWRLCH
RWRLCH
REGIONAL WEATHER ROUNDUP
NATIONAL WEATHER SERVICE LAKE CHARLES LA
300 AM CST MON NOV 24 2014

Note: "fair" indicates few or no clouds below 12,000 feet with no
significant weather and/or obstructions to visibility.


ACROSS SOUTHEAST TEXAS

CITY           SKY/WX    TMP DP  RH WIND       PRES   REMARKS
BEAUMONT       CLEAR     59  48  67 NW9       29.79R
BEAUMONT CITY    N/A     56  47  72 NW10      29.81R
ORANGE         SUNNY     59  51  74 NW6       29.80R
JASPER         CLEAR     55  46  70 NW8       29.83R
$$

ACROSS CENTRAL LOUISIANA

CITY           SKY/WX    TMP DP  RH WIND       PRES   REMARKS
LEESVILLE      CLEAR     57  49  77 NW15      29.77R
FULLERTON      NOT AVBL
ALEXANDRIA INT CLEAR     58  55  90 W6        29.74R
ESLER FIELD    CLEAR     58  55  90 W5        29.74R
DERIDDER         N/A     57  50  78 NW9       29.79R
OAKDALE        SUNNY     60  56  87 W3        29.76R
OPELOUSAS        N/A     63  61  92 W7        29.75R
$$

ACROSS SOUTHWEST AND SOUTH CENTRAL LOUISIANA

CITY           SKY/WX    TMP DP  RH WIND       PRES   REMARKS
SULPHUR        SUNNY     60  56  85 NW9       29.78R
LAKE CHARLES   CLEAR     62  54  74 NW8       29.77R
CHENNAULT INT  CLEAR     62  55  80 NW9       29.77R
CAMERON PHI      N/A     63  61  94 NW9       29.80R
DEQUINCY         N/A     56  52  85 NW7       29.78R
JENNINGS         N/A     61  60  94 W8        29.77R
LAFAYETTE      MOCLDY    67  65  93 W9        29.76R
NEW IBERIA     CLOUDY    66  65  96 W5        29.76R FOG
ABBEVILLE      CLOUDY    67  66  97 W8        29.76R
PATTERSON      CLOUDY    66  66 100 SW10      29.77R
SALT POINT       N/A    N/A N/A N/A VRB5      29.74R
$$

SELECTED SITES ACROSS THE REGION

CITY           SKY/WX    TMP DP  RH WIND       PRES   REMARKS
HOUSTON BUSH   CLEAR     57  42  57 NW14      29.84R
HOUSTON HOBBY  CLEAR     59  42  53 N17G26    29.83R
GALVESTON      CLEAR     63  54  72 N14       29.81R
COLLEGE STAT   CLEAR     51  40  65 N13G22    29.89R
CONROE         CLEAR     53  41  63 NW15G22   29.86R
HUNTSVILLE     CLEAR     51  41  68 NW8       29.87R
LUFKIN         CLEAR     54  41  61 NW12G17   29.84R
SHREVEPORT     CLOUDY    53  42  66 NW17      29.80R
MONROE         CLEAR     57  48  72 W13       29.72R
NATCHEZ MS     CLEAR     63  57  82 W7        29.74R
BATON ROUGE    CLEAR     66  63  90 SW9       29.74R
N.O. INTL ARPT FOG       67  65  93 SW9       29.76R VSB 1
SLIDELL        CLOUDY    68  66  93 SW5       29.75S FOG
$$

MARINE REPORTS

STATION/POSITION TIME  TEMP    WIND        PRES    VSBY  WAVE
                       AIR SEA DIR/SP/G                  HT/PER
                 (UTC) (F)     (DEG/KT/KT) (MB)    (MI)  (FT/S)
BUOY 30 S HIGH I 0900   64 61  310/ 12/ 14 1008.6R         3/ 7
SEA RIM ST PARK  0900   59     330/  8/ 10 1009.3R
PORT ARTHUR      0900      60  320/  9/ 13 1008.5R
SABINE PASS N    0900   62 60  330/  8/ 12 1008.3R
TEXAS POINT      NOT AVBL
CALCASIEU PASS   0900   63 59  290/  9/ 10   N/A
LK CHARLES BEACH 0900   63 62              1008.0R
MARSH ISLAND     NOT AVBL
FRESH WATER LOCK 0900   65 61  210/  7/ 10 1007.1R
AMERADA PASS     0900   66 58  190/  4/  7 1007.4R
$$



USA.gov is the U.S. government's official web portal to all federal, state and local government web resources and services.